Temp_Advection
nan nan nan nan nan nan nan nan nan nan nan nan nan nan nan nan nan nan nan nan nan nan nan nan nan nan nan nan nan nan nan nan nan nan nan nan nan nan nan nan nan nan nan nan nan nan nan
nan -1 -1 -0 -1 -0 -0 -0 -0 -0 -0 -0 0 0 -0 0 -0 1 0 -0 -0 -1 1 1 0 0 0 -0 -0 -0 -0 -0 -0 -1 -1 -0 -0 0 -1 -1 -0 0 -0 -0 -0 0 nan
nan -1 -0 -0 -0 -0 -0 -0 -0 -0 -0 -0 0 -0 -1 0 -1 -1 -1 -0 0 -1 -1 0 0 -0 0 0 -0 -0 -0 -0 -0 -0 -0 -0 0 0 -0 -0 -1 -1 -1 -1 -1 -0 nan
nan -0 -0 -0 -0 -0 -0 -0 -0 -0 -0 0 0 0 -1 -1 -1 -1 -1 -1 0 0 -0 -0 0 -0 0 0 -0 -0 -1 -0 -0 -0 -0 -0 0 0 0 0 -0 -0 -0 -1 -1 -1 nan
nan -0 -0 -0 -0 -0 -0 -0 0 1 1 1 1 1 1 -0 -1 -1 -2 -2 -0 -0 0 -0 -0 -0 0 -0 -0 -1 -0 -0 -0 -1 -1 -0 -1 0 0 0 -0 -0 -1 -1 -1 -0 nan
nan -0 -0 -0 -0 -0 -0 0 0 0 0 -0 0 1 -0 -0 -0 -1 -1 -2 -1 -0 -1 -0 -0 -0 -0 -0 -0 -0 -0 -0 -0 -1 -1 -1 -0 -0 -0 -0 -0 -1 -0 -0 -1 -0 nan
nan -0 0 0 -0 0 -0 -0 -1 -0 0 -1 -2 -1 -1 -0 -0 -0 -0 -1 -2 -0 -3 -0 -0 -0 -0 -0 -0 -0 -0 -1 -1 -1 -0 -0 -0 -0 -1 -1 -0 0 -0 -1 -3 -0 nan
nan 0 0 -0 -0 0 -0 -0 -0 1 0 -0 -1 -1 -0 -0 -0 0 -0 -2 -1 -0 -1 0 0 0 -0 -0 -0 -1 -0 -0 -0 -0 -0 -0 -0 -1 -0 -0 -0 -0 -0 -1 -2 -2 nan
nan 0 0 -0 0 -0 -0 0 0 0 -0 -0 0 -0 -0 -0 -0 -0 -1 0 0 0 -0 -0 -0 -0 -0 -0 -0 -0 -0 0 0 -0 0 0 -1 -0 -0 0 0 -1 -0 -0 -1 -1 nan
nan -0 -0 0 0 -0 1 1 0 -0 -0 0 -0 -0 -0 -0 -0 -1 -0 0 0 -0 -0 -0 -0 -0 -0 -0 -0 -0 -0 0 0 0 -0 0 -0 -0 -0 -0 0 -0 -1 0 0 -0 nan
nan -0 -0 0 -0 0 1 1 1 -0 -0 0 -0 -0 -0 0 0 0 0 0 0 0 -0 -1 -0 -0 -0 -0 -0 -0 -0 0 0 0 -0 -0 -0 -0 -0 0 0 -0 -0 -1 -0 0 nan
nan -0 -0 -0 -0 -0 -0 -0 1 -0 0 0 -0 -0 -0 0 -0 0 1 0 -0 -1 0 -0 -0 -0 -0 -0 -0 -0 -0 -1 0 -0 0 -0 -0 0 -0 -0 0 0 -0 -1 -0 0 nan
nan -0 -0 0 0 -0 -1 -1 -1 -0 -0 -0 -0 0 -0 -0 -0 -0 0 -0 -1 1 0 0 -0 -0 -0 -0 -0 -0 0 -0 0 -1 -1 -1 -1 -0 -0 -0 -0 0 0 -0 -0 -0 nan
nan -0 0 0 -0 -1 -0 -1 -2 -0 -0 -0 -0 0 0 -0 0 -0 -0 -1 0 0 -0 -0 -0 -0 -0 -0 -0 -0 0 0 0 0 -0 -0 -2 -1 0 1 -0 -0 -0 -0 -0 -0 nan
nan 0 0 -0 -0 -0 -0 -0 -1 -1 -0 -0 -0 -0 -0 -0 -0 -0 -1 -0 0 -0 -0 -0 -0 -0 -0 -0 -0 -0 0 0 0 0 -0 -0 -2 -1 -0 0 0 -0 -0 0 -0 -0 nan
nan -0 -0 -0 0 -0 -0 -0 -0 -1 -0 -0 -0 -0 -0 -0 -0 -1 -1 0 -0 -0 0 0 -0 -0 -0 -0 -0 -0 0 -0 -0 -0 0 -0 -2 -1 -0 -0 0 0 -0 -0 -0 -0 nan
nan -0 -0 0 0 -0 -0 -0 -0 -1 -0 -0 -0 -0 -0 -0 -0 -2 -0 -0 -0 -0 0 0 0 0 0 -0 -0 0 -0 0 0 1 0 0 -0 -2 -0 0 -0 0 -0 -0 -0 -0 nan
nan -0 0 0 -0 -0 -0 0 -0 -0 -1 -1 -0 -0 -0 -0 -1 -0 0 -0 -0 -0 0 0 0 0 -0 0 0 0 -0 -0 0 1 0 -0 -0 -0 -1 0 -0 -0 0 -0 -0 -0 nan
nan 0 0 -0 -0 -0 0 0 0 -0 -1 -1 -0 -0 -0 -1 -0 -0 -0 -0 -0 -0 -0 0 0 0 0 -0 0 -0 -0 -0 0 1 0 -0 -0 -0 -0 -0 0 -0 -0 -0 -0 -0 nan
nan 0 -0 -0 -0 -0 -0 -0 -0 -0 -0 -0 -0 -0 -0 -1 -0 -0 -0 -1 -0 -0 0 0 0 0 0 -0 0 0 -0 -0 -0 -0 1 0 0 -0 -0 -0 -0 0 -0 -0 -0 -0 nan
nan 0 0 0 -0 0 -0 -0 -0 -0 -0 -0 -0 0 -0 -0 -0 0 -0 -0 -1 -0 -0 -0 -0 0 0 -0 -0 -0 -0 -1 -1 -0 -0 -0 -0 -1 0 0 0 -0 -0 0 -0 -1 nan
nan 0 0 0 0 0 0 -0 -0 -0 -0 -0 -0 0 0 0 0 -0 0 -0 -0 -0 0 -0 -0 -0 1 -0 -0 -0 -0 -0 -0 -0 -0 0 -0 -0 -0 -0 0 -0 -0 -0 -0 -1 nan
nan 0 0 0 0 0 0 0 -0 -0 -0 -0 -0 -0 0 0 0 0 -0 0 0 -0 -0 -0 0 -0 -0 -0 1 1 1 0 -0 -0 0 -0 -0 -0 -0 -0 0 -0 0 -0 -0 -0 nan
nan 0 0 0 0 0 0 0 0 -0 0 0 -0 0 0 0 -0 -0 0 0 -0 0 -0 -1 1 -0 -0 -0 -1 -0 0 0 -0 -0 0 0 -0 -0 -0 -0 -0 -0 -0 -0 -0 -0 nan
nan 0 0 0 0 0 0 0 0 0 0 0 -0 0 0 0 -0 -0 0 0 -1 -1 -0 -0 -0 1 -0 0 -0 -1 -0 -0 -0 -0 0 0 -0 -0 -0 -0 -0 0 0 0 0 0 nan
nan 0 0 0 0 0 0 0 0 -0 -0 -0 0 0 0 0 -0 -0 0 0 0 -0 -1 -1 -1 -0 0 -0 -0 -0 -0 -0 -0 -1 -0 -0 -0 -0 -0 -0 -1 -0 -0 1 -0 0 nan
nan 0 0 0 0 0 0 0 0 0 -0 0 0 0 0 -0 -0 0 0 -0 -0 0 0 -0 -1 -0 -1 -0 -0 -0 -0 0 -0 -0 -0 -1 -0 -0 -0 -0 -0 0 -1 -1 -1 -0 nan
nan 0 0 0 -0 0 0 0 0 0 0 0 0 0 0 -0 -0 -0 -0 -0 0 0 -0 -0 0 -0 0 -0 -0 0 0 -0 -0 -0 0 -0 -0 -0 -0 -0 -0 -0 -0 -1 -0 -1 nan
nan nan nan nan nan nan nan nan nan nan nan nan nan nan nan nan nan nan nan nan nan nan nan nan nan nan nan nan nan nan nan nan nan nan nan nan nan nan nan nan nan nan nan nan nan nan nan
Wind_Speed
9 9 10 11 12 13 16 17 17 19 20 21 22 24 25 27 28 29 31 31 29 29 30 27 21 14 11 9 4 14 21 22 20 15 6 9 15 15 14 6 16 23 26 18 27 33 25
8 9 11 15 14 13 16 16 18 19 21 22 23 25 26 28 30 32 33 30 30 29 31 23 11 7 4 3 11 17 25 25 21 19 14 12 7 14 17 20 21 12 22 34 33 26 14
7 8 10 10 12 13 14 17 18 20 21 22 24 26 28 30 31 32 32 32 30 25 20 13 7 4 3 7 10 21 18 21 18 17 18 16 17 13 10 10 9 18 22 23 25 21 19
5 8 9 11 12 15 15 17 19 20 21 23 25 27 29 30 31 32 32 32 28 25 20 16 5 2 2 10 17 17 21 21 16 14 19 15 16 22 18 14 11 8 10 19 20 25 15
7 8 11 10 12 14 16 18 19 21 23 25 27 29 31 30 30 29 30 33 29 9 13 7 9 3 4 14 26 23 26 26 12 21 22 7 17 15 14 12 14 9 16 17 17 12 9
8 10 7 8 12 14 15 17 18 20 23 26 28 30 31 29 29 26 30 28 15 8 21 4 12 5 20 25 26 21 27 26 18 21 13 16 6 4 4 7 18 22 21 17 16 6 19
6 6 7 9 10 13 15 17 19 21 23 25 29 30 30 27 23 26 31 21 22 5 19 6 6 1 16 19 20 24 28 26 21 19 5 7 3 6 14 12 17 11 10 14 21 21 9
5 7 8 10 11 14 16 18 20 22 24 27 28 30 29 24 14 25 28 25 17 6 8 10 11 5 23 24 10 29 25 11 11 8 7 5 5 8 12 16 17 21 19 17 16 16 17
4 6 7 10 11 14 15 17 20 23 24 27 29 31 25 21 11 26 27 25 16 5 2 8 18 10 27 22 10 27 27 18 3 6 7 3 12 13 14 17 14 16 11 8 12 13 20
4 6 8 9 13 14 16 19 21 23 24 26 29 27 18 24 11 25 25 24 16 0 2 9 10 7 24 19 9 20 29 8 4 3 5 6 9 18 20 17 13 13 12 17 17 11 10
5 6 8 9 13 15 18 19 21 24 24 26 27 19 20 23 19 25 27 26 6 6 4 16 5 13 29 7 14 11 27 11 5 7 3 12 20 20 21 12 11 9 14 17 16 13 12
4 6 8 10 12 16 18 20 23 25 24 25 22 15 21 19 21 24 25 11 4 5 3 7 14 21 15 22 21 15 18 14 8 6 14 15 19 9 7 11 13 18 12 17 13 11 14
3 5 8 8 12 14 17 21 23 23 23 24 16 14 17 20 27 24 19 1 4 6 7 10 16 16 16 13 13 7 10 9 1 6 12 18 11 8 7 16 10 8 11 3 6 8 7
3 4 6 9 12 13 16 20 22 23 23 23 9 12 13 16 23 21 13 6 9 5 3 12 13 17 7 11 11 6 12 5 2 2 8 6 25 12 12 13 9 17 6 3 7 5 10
2 5 7 9 10 13 16 18 22 25 23 23 6 14 18 17 19 16 7 6 2 3 7 9 13 5 4 11 7 6 5 4 5 2 5 6 17 24 15 14 6 6 3 7 4 8 4
2 5 7 9 10 13 15 17 20 23 22 22 12 3 20 19 12 14 7 7 1 3 7 6 3 3 7 7 9 11 3 5 6 3 3 3 18 10 15 12 6 9 4 5 3 3 6
2 5 6 8 10 12 14 16 20 23 22 20 8 3 14 15 8 11 4 2 3 7 9 3 4 5 7 4 9 4 6 9 1 12 4 8 6 12 12 7 11 7 4 3 5 5 3
2 4 6 8 9 12 14 16 18 21 22 18 5 3 8 16 9 3 2 5 6 5 8 5 4 4 5 11 6 5 6 9 19 15 14 3 4 9 18 7 4 7 6 5 4 4 4
2 5 7 7 8 10 14 16 17 19 20 14 5 4 5 14 3 3 5 4 4 4 6 3 4 4 3 7 6 7 8 18 19 12 4 3 2 9 9 2 2 6 12 19 3 2 4
2 4 6 7 7 10 13 15 16 18 18 9 4 3 5 5 3 4 2 4 5 10 8 5 7 8 9 9 4 9 9 10 29 11 20 11 2 4 5 12 12 12 21 23 14 2 4
2 3 4 6 7 10 11 13 14 16 17 5 6 2 2 3 3 3 2 1 5 8 4 6 3 8 7 5 6 3 12 20 14 9 11 2 3 10 16 12 6 13 22 20 26 17 9
3 3 4 5 6 8 11 11 11 12 13 10 3 5 4 7 10 2 2 3 3 5 3 5 5 14 10 4 6 18 18 11 6 9 5 3 4 13 5 7 9 13 25 12 24 26 14
4 4 4 5 6 9 10 10 9 10 11 5 8 5 6 5 1 2 3 3 5 12 10 10 10 11 11 7 20 34 26 16 11 5 4 4 6 5 5 12 11 4 23 18 10 19 17
6 5 5 5 7 9 9 10 8 7 6 8 10 10 3 4 2 4 6 10 8 11 7 17 17 3 12 34 29 11 7 7 5 5 7 8 8 4 5 9 4 4 15 15 11 18 25
8 7 6 6 8 9 10 10 8 7 6 9 8 7 3 3 5 12 4 7 13 14 5 7 14 20 24 15 5 6 5 6 5 3 7 5 4 4 4 4 1 4 22 19 8 3 22
8 7 7 7 8 9 10 10 8 7 7 10 10 9 5 4 4 5 7 3 2 3 5 5 17 15 11 3 3 3 2 3 6 10 6 6 5 2 4 4 6 8 25 38 2 2 25
8 8 7 8 8 9 10 10 8 7 9 10 12 8 6 6 7 4 3 3 2 4 3 8 14 8 10 3 3 2 3 1 4 6 8 6 5 5 6 3 2 15 19 23 10 10 35
9 8 8 8 9 9 9 10 9 9 9 13 12 10 9 6 15 12 6 7 6 3 2 7 7 4 4 5 2 2 1 3 2 4 5 1 4 3 4 4 5 27 6 9 10 22 28
8 8 7 8 8 9 10 11 10 11 9 11 11 9 11 13 11 19 16 18 11 8 7 3 3 4 3 1 1 2 2 1 2 3 3 4 4 2 1 3 13 24 7 17 24 25 26
Wind_Direction
35 27 23 17 16 17 9 2 5 4 357 352 351 349 350 348 346 342 341 344 346 337 326 318 320 325 310 320 320 341 353 349 343 349 352 272 249 235 242 225 226 247 251 253 242 246 258
38 14 20 22 17 15 5 8 2 358 354 354 351 349 349 347 347 341 342 345 343 336 336 337 337 321 337 331 6 359 344 342 344 341 331 322 289 277 298 258 245 262 264 255 257 257 257
35 18 25 24 14 353 10 1 357 1 357 352 351 349 350 349 346 341 342 345 343 342 352 351 356 36 295 321 356 346 342 2 2 349 336 309 296 262 300 312 316 290 272 276 260 253 233
19 15 25 24 10 8 2 356 4 355 355 353 350 350 349 351 347 342 342 346 344 332 356 355 316 17 39 41 358 360 2 358 351 350 333 320 284 275 242 260 289 282 278 254 258 245 252
23 24 27 21 2 6 2 6 357 360 355 353 352 349 349 352 347 345 344 347 344 360 356 8 32 85 31 358 3 6 6 351 346 345 345 325 324 261 262 261 269 217 257 255 268 203 192
24 35 8 348 6 8 9 359 358 359 356 352 348 348 349 353 349 351 349 349 344 54 7 29 32 108 13 350 350 358 358 356 350 345 345 339 317 331 306 248 252 264 261 266 248 224 215
44 1 4 14 3 8 4 4 3 0 355 352 349 348 348 354 355 358 353 13 30 27 37 29 331 271 336 339 340 0 356 351 344 346 4 319 308 265 274 277 291 302 299 296 277 265 319
10 20 16 6 15 4 4 4 1 359 356 354 352 349 348 353 357 1 5 34 21 347 321 15 13 333 350 337 312 351 353 346 325 322 341 348 260 276 324 317 296 292 281 280 279 276 246
7 9 9 17 5 4 4 359 358 3 358 354 351 351 352 2 353 357 8 6 355 360 289 335 20 13 354 348 324 338 349 330 296 309 326 205 267 297 308 305 295 293 261 289 284 299 284
19 12 9 4 4 6 360 1 359 4 0 354 353 356 10 2 358 354 356 347 332 176 62 2 5 6 346 342 354 336 344 327 320 288 304 289 286 310 304 298 297 276 263 260 273 287 252
10 11 8 5 5 356 354 0 357 3 360 354 357 9 11 2 1 357 340 338 331 154 44 324 350 330 337 326 322 330 341 331 270 289 81 275 292 297 293 283 299 272 291 276 253 254 262
347 11 18 9 352 347 354 357 1 3 2 358 2 21 5 11 8 351 340 349 102 45 337 339 334 330 337 328 334 318 341 331 286 284 300 295 296 273 253 288 281 298 298 253 241 250 246
3 20 11 347 339 351 357 3 2 7 3 359 10 16 11 14 356 350 343 55 39 65 344 334 325 327 319 332 327 323 326 317 245 331 328 314 315 306 242 319 300 301 325 259 205 223 241
25 20 347 351 355 2 7 356 0 7 3 359 21 7 17 4 359 352 359 56 62 331 314 309 318 316 324 347 325 311 317 301 275 189 310 338 322 334 315 310 295 303 211 257 236 199 215
20 2 353 355 6 7 353 2 357 2 4 353 1 24 17 7 10 17 47 52 134 284 293 315 315 317 304 327 335 332 276 246 238 165 330 310 306 318 300 355 298 339 233 266 263 250 264
357 355 2 2 2 360 5 356 354 360 6 354 1 36 16 8 15 32 54 90 191 265 302 305 323 335 301 317 330 331 311 246 289 191 176 268 303 303 330 333 309 308 293 345 260 264 218
335 2 3 353 5 6 352 1 356 358 7 358 16 53 10 7 30 42 84 239 284 283 334 303 289 288 272 296 308 284 265 296 302 326 238 296 215 296 322 328 304 344 332 322 271 261 263
332 351 348 353 7 354 359 356 3 2 6 8 11 45 7 2 42 28 30 328 300 281 322 280 262 206 231 317 298 300 282 298 306 323 311 255 281 310 310 315 180 351 285 257 232 290 271
298 336 343 356 2 7 349 356 5 6 5 3 5 329 350 19 61 342 320 296 258 300 317 308 286 256 256 307 317 281 311 308 326 320 286 286 276 317 332 345 232 335 337 346 242 270 279
275 329 338 0 22 346 350 2 8 360 7 13 359 18 351 23 48 127 358 291 315 316 289 296 279 287 320 302 240 282 304 318 324 309 342 351 275 228 272 280 301 343 358 10 15 346 21
263 321 341 355 8 354 359 2 10 357 13 23 21 19 11 310 331 341 179 259 299 337 295 306 294 310 321 295 309 275 318 334 317 305 333 63 279 301 308 300 303 12 353 22 28 17 40
245 292 320 337 332 347 351 1 10 359 6 48 54 355 288 275 291 334 304 275 289 312 242 290 278 313 306 226 225 302 314 320 271 310 313 345 286 317 300 302 329 30 1 13 28 22 17
236 270 314 330 340 335 342 355 2 1 357 32 358 339 288 270 234 82 227 319 294 310 299 247 299 312 300 284 306 296 291 257 246 292 311 303 315 318 300 322 318 356 7 353 22 34 13
235 269 303 323 318 329 336 347 347 345 1 349 351 339 293 276 200 286 292 302 280 304 268 293 310 267 297 313 315 307 299 285 227 257 231 307 319 296 291 315 51 145 9 357 354 36 12
238 261 286 299 306 320 330 336 341 3 349 332 331 326 288 277 243 299 285 283 306 313 282 282 309 314 315 316 359 349 344 356 327 312 341 348 306 312 332 321 274 321 351 344 335 357 13
241 260 279 292 309 317 322 330 340 345 325 317 319 310 266 275 255 267 298 302 265 299 327 278 321 331 335 340 40 40 323 300 322 323 338 331 357 19 329 344 21 357 335 332 257 178 358
242 258 273 292 302 310 316 326 332 333 316 310 314 307 258 254 271 258 261 247 298 311 268 301 341 333 357 358 19 26 308 264 344 324 337 343 349 12 354 352 68 356 347 342 42 316 326
242 256 271 288 303 311 313 320 326 315 319 307 310 305 232 252 283 275 255 236 303 273 180 313 348 341 347 25 41 274 130 276 0 297 335 56 345 345 352 11 0 9 350 36 302 313 322
240 254 272 288 304 310 312 319 318 310 312 298 292 296 258 261 275 287 286 265 265 261 272 284 255 300 289 31 280 261 281 27 151 295 11 13 138 230 311 272 336 325 274 346 335 324 325
Height
1555 1554 1552 1550 1548 1547 1544 1542 1539 1537 1534 1529 1525 1520 1515 1510 1505 1500 1495 1492 1487 1482 1478 1474 1471 1471 1472 1471 1470 1468 1466 1463 1459 1458 1458 1460 1458 1457 1449 1445 1445 1438 1421 1431 1431 1433 1433
1556 1554 1552 1551 1549 1547 1545 1542 1539 1535 1531 1528 1524 1519 1513 1508 1504 1498 1494 1490 1484 1479 1474 1469 1469 1468 1467 1471 1470 1468 1465 1462 1458 1457 1456 1455 1455 1452 1447 1440 1438 1427 1428 1427 1429 1426 1430
1556 1554 1552 1551 1549 1546 1544 1542 1538 1534 1531 1527 1522 1517 1512 1507 1502 1496 1491 1487 1482 1478 1474 1469 1467 1466 1469 1470 1469 1467 1463 1461 1459 1457 1453 1451 1451 1450 1444 1438 1435 1430 1428 1427 1418 1421 1422
1556 1554 1552 1551 1549 1546 1544 1540 1537 1534 1530 1526 1521 1516 1511 1505 1499 1494 1488 1485 1480 1475 1473 1469 1467 1469 1469 1470 1471 1465 1461 1460 1457 1456 1452 1448 1446 1442 1440 1439 1433 1431 1425 1412 1402 1415 1418
1555 1554 1552 1551 1548 1546 1542 1540 1536 1533 1529 1524 1519 1514 1509 1504 1498 1492 1486 1482 1476 1472 1470 1469 1468 1468 1471 1471 1467 1465 1462 1458 1455 1452 1448 1444 1442 1438 1436 1434 1431 1423 1411 1407 1403 1403 1410
1555 1554 1552 1550 1547 1544 1542 1539 1535 1532 1527 1522 1517 1512 1508 1503 1497 1492 1486 1481 1475 1473 1469 1468 1471 1474 1475 1473 1469 1467 1463 1458 1454 1449 1445 1444 1441 1439 1437 1434 1420 1414 1414 1405 1401 1399 1399
1555 1553 1552 1549 1546 1544 1541 1538 1535 1531 1527 1521 1517 1512 1506 1502 1497 1493 1486 1476 1476 1476 1475 1482 1482 1482 1479 1477 1471 1468 1462 1457 1454 1451 1449 1445 1445 1448 1438 1433 1424 1426 1425 1417 1404 1404 1407
1554 1553 1551 1549 1547 1544 1541 1538 1535 1531 1526 1521 1515 1510 1505 1502 1498 1494 1490 1486 1492 1493 1487 1482 1482 1482 1479 1475 1470 1467 1464 1461 1455 1453 1450 1449 1450 1438 1434 1432 1431 1425 1419 1416 1407 1400 1399
1553 1552 1550 1549 1546 1543 1541 1538 1534 1530 1525 1520 1514 1509 1504 1500 1497 1495 1492 1491 1491 1491 1491 1486 1484 1483 1480 1476 1472 1468 1465 1459 1455 1454 1453 1457 1442 1436 1434 1431 1430 1425 1418 1415 1413 1402 1393
1552 1551 1550 1548 1546 1543 1541 1537 1534 1530 1525 1519 1514 1508 1504 1500 1498 1494 1491 1491 1488 1488 1492 1491 1487 1486 1482 1478 1473 1468 1465 1462 1457 1458 1451 1450 1437 1433 1430 1427 1423 1422 1411 1410 1411 1410 1396
1552 1551 1550 1548 1546 1543 1540 1536 1533 1529 1524 1519 1514 1509 1506 1501 1500 1495 1493 1488 1485 1487 1516 1496 1492 1488 1484 1482 1477 1468 1465 1460 1458 1455 1455 1448 1438 1432 1425 1421 1420 1411 1410 1409 1398 1400 1399
1552 1551 1550 1548 1546 1543 1539 1536 1531 1528 1523 1518 1514 1510 1507 1504 1501 1496 1491 1487 1487 1499 1534 1498 1495 1490 1486 1481 1475 1470 1465 1461 1457 1454 1446 1443 1432 1428 1421 1416 1415 1409 1405 1398 1391 1392 1383
1552 1551 1551 1549 1547 1544 1540 1536 1532 1527 1523 1518 1514 1511 1507 1504 1500 1495 1489 1488 1503 1524 1510 1504 1496 1491 1487 1481 1476 1472 1467 1467 1468 1464 1452 1436 1429 1420 1416 1415 1406 1406 1408 1409 1391 1385 1376
1552 1551 1550 1549 1546 1544 1540 1536 1532 1528 1524 1518 1515 1513 1510 1507 1502 1495 1489 1494 1519 1514 1511 1505 1498 1492 1489 1483 1479 1473 1468 1470 1461 1465 1456 1452 1431 1424 1417 1420 1413 1403 1402 1403 1371 1364 1355
1551 1550 1550 1548 1546 1543 1540 1537 1533 1529 1524 1519 1517 1514 1511 1508 1503 1497 1494 1515 1523 1518 1512 1505 1498 1495 1492 1487 1486 1480 1474 1477 1468 1464 1465 1458 1435 1426 1414 1410 1409 1396 1390 1390 1387 1362 1364
1551 1550 1549 1547 1545 1543 1540 1537 1533 1529 1524 1518 1516 1515 1513 1510 1506 1501 1501 1510 1516 1513 1510 1506 1510 1500 1500 1492 1489 1484 1478 1471 1467 1461 1460 1458 1443 1419 1411 1410 1406 1406 1399 1394 1374 1381 1342
1550 1548 1547 1546 1544 1542 1540 1536 1532 1528 1525 1520 1516 1516 1515 1512 1509 1507 1520 1521 1515 1511 1509 1508 1506 1507 1507 1501 1489 1489 1483 1470 1462 1458 1456 1453 1454 1421 1414 1416 1412 1405 1402 1399 1392 1380 1345
1549 1548 1547 1545 1543 1542 1539 1536 1532 1528 1524 1520 1519 1519 1517 1514 1512 1515 1520 1516 1514 1509 1508 1506 1503 1505 1506 1493 1490 1485 1481 1471 1461 1457 1451 1448 1443 1431 1418 1407 1410 1406 1402 1398 1388 1376 1368
1547 1547 1546 1544 1542 1541 1538 1535 1533 1529 1524 1521 1521 1519 1518 1516 1524 1522 1518 1515 1514 1510 1507 1505 1503 1500 1497 1494 1490 1480 1472 1462 1460 1456 1453 1448 1443 1432 1414 1411 1407 1409 1400 1390 1372 1377 1366
1545 1545 1545 1543 1542 1540 1537 1534 1532 1530 1527 1524 1523 1523 1519 1518 1519 1521 1525 1518 1514 1510 1507 1504 1501 1499 1496 1490 1485 1480 1472 1463 1459 1454 1446 1443 1443 1442 1439 1429 1421 1411 1404 1398 1384 1372 1360
1543 1544 1543 1543 1541 1539 1537 1534 1532 1530 1528 1527 1527 1528 1526 1526 1520 1520 1521 1521 1515 1510 1506 1502 1499 1498 1500 1495 1483 1475 1467 1465 1456 1451 1448 1446 1448 1430 1422 1420 1418 1416 1411 1405 1398 1394 1389
1542 1542 1541 1541 1540 1538 1536 1533 1531 1528 1526 1526 1528 1530 1528 1523 1520 1519 1518 1518 1512 1510 1509 1503 1501 1496 1495 1499 1488 1477 1475 1470 1466 1453 1451 1446 1442 1430 1423 1418 1417 1420 1414 1406 1402 1399 1396
1540 1540 1540 1539 1539 1537 1534 1532 1531 1530 1528 1528 1528 1528 1527 1522 1520 1520 1517 1514 1512 1510 1502 1501 1499 1497 1491 1485 1479 1469 1467 1466 1463 1462 1455 1450 1443 1434 1425 1416 1413 1417 1424 1416 1415 1412 1410
1539 1539 1538 1538 1537 1535 1533 1532 1531 1528 1527 1527 1527 1527 1526 1523 1520 1516 1513 1512 1510 1509 1508 1499 1497 1496 1489 1481 1470 1462 1460 1458 1458 1457 1457 1451 1444 1435 1429 1417 1427 1434 1431 1425 1417 1415 1409
1536 1536 1536 1535 1535 1535 1533 1531 1530 1528 1528 1525 1525 1525 1524 1521 1517 1513 1511 1509 1507 1505 1503 1498 1494 1493 1487 1481 1476 1472 1468 1462 1457 1454 1454 1452 1447 1442 1434 1428 1422 1422 1430 1430 1431 1422 1424
1533 1534 1534 1533 1533 1532 1532 1530 1528 1528 1526 1524 1522 1521 1521 1520 1514 1511 1511 1509 1509 1506 1501 1496 1493 1488 1487 1483 1484 1494 1488 1479 1469 1460 1455 1453 1451 1447 1436 1431 1434 1455 1435 1421 1418 1413 1422
1531 1532 1531 1531 1531 1530 1528 1527 1526 1525 1524 1522 1519 1518 1518 1516 1510 1510 1509 1509 1506 1505 1504 1497 1493 1489 1488 1488 1487 1491 1487 1480 1483 1476 1469 1467 1468 1458 1450 1443 1446 1456 1439 1422 1428 1446 1430
1528 1529 1528 1528 1528 1527 1526 1525 1523 1522 1521 1519 1518 1515 1516 1513 1507 1507 1506 1505 1505 1504 1507 1498 1496 1494 1492 1496 1495 1498 1498 1493 1492 1478 1475 1488 1484 1474 1466 1470 1457 1454 1450 1450 1458 1445 1439
1525 1526 1526 1525 1525 1525 1524 1522 1521 1520 1518 1516 1515 1513 1513 1512 1506 1503 1502 1502 1502 1502 1502 1500 1501 1499 1496 1497 1496 1491 1490 1495 1499 1494 1478 1489 1491 1493 1479 1471 1466 1463 1462 1463 1458 1451 1440